Location: 22
(39.7117°N, 89.5929°W)
Time: 06:08:55
(UTC-05:00)

Vanguard 1 Rocket - Pass Details

Date: 12 February 2023
Orbit: 652 x 4223 km, 34.3° (Epoch: 26 March)

Event Time Altitude Azimuth Distance (km) Brightness Sun altitude
Rises 12:50:18 0° 268° (W) 4,191 10.9 36.0°
Reaches altitude 10° 12:52:34 10° 265° (W) 3,510 10.7 35.9°
Maximum altitude 13:01:50 66° 186° (S) 2,319 10.7 35.5°
Drops below altitude 10° 13:20:23 10° 110° (ESE) 6,551 11.8 34.4°
Sets 13:26:30 0° 108° (ESE) 7,983 12.2 34.0°
